Time,TemperatureF,DewpointF,PressureIn,WindDirection,WindDirectionDegrees,WindSpeedMPH,WindSpeedGustMPH,Humidity,HourlyPrecipIn,Conditions,Clouds,dailyrainin,SoftwareType,DateUTC
2013-01-30 00:00:00,46.1,43.9,30.07,South,175,1.0,1.0,92,0.00,,,0.00,Wunderground v.1.13,2013-01-30 05:00:00,
2013-01-30 00:05:00,46.0,43.8,30.07,South,179,0.0,6.0,92,0.00,,,0.00,Wunderground v.1.13,2013-01-30 05:05:00,
2013-01-30 00:10:00,46.0,43.8,30.07,South,178,0.0,6.0,92,0.00,,,0.00,Wunderground v.1.13,2013-01-30 05:10:00,
2013-01-30 00:15:00,46.0,43.8,30.07,South,176,0.0,6.0,92,0.00,,,0.00,Wunderground v.1.13,2013-01-30 05:15:00,
2013-01-30 00:25:00,46.0,43.8,30.07,South,188,0.0,3.0,92,0.00,,,0.00,Wunderground v.1.13,2013-01-30 05:25:00,
2013-01-30 00:35:00,46.2,44.3,30.06,South,183,1.0,1.0,93,0.00,,,0.00,Wunderground v.1.13,2013-01-30 05:35:00,
2013-01-30 00:40:00,46.2,44.0,30.06,South,173,1.0,1.0,92,0.00,,,0.00,Wunderground v.1.13,2013-01-30 05:40:00,
2013-01-30 00:50:00,46.0,43.8,30.05,South,173,0.0,7.0,92,0.00,,,0.00,Wunderground v.1.13,2013-01-30 05:50:00,
2013-01-30 01:00:00,45.7,43.8,30.04,South,173,0.0,7.0,93,0.00,,,0.00,Wunderground v.1.13,2013-01-30 06:00:00,
2013-01-30 01:05:00,45.5,43.6,30.03,South,173,0.0,3.0,93,0.00,,,0.00,Wunderground v.1.13,2013-01-30 06:05:00,
2013-01-30 01:10:00,45.5,43.6,30.03,South,173,0.0,3.0,93,0.00,,,0.00,Wunderground v.1.13,2013-01-30 06:10:00,
2013-01-30 01:20:00,45.4,43.5,30.03,South,173,0.0,3.0,93,0.00,,,0.00,Wunderground v.1.13,2013-01-30 06:20:00,
2013-01-30 01:25:00,45.4,43.5,30.03,South,173,0.0,3.0,93,0.00,,,0.00,Wunderground v.1.13,2013-01-30 06:25:00,
2013-01-30 01:35:00,45.2,43.3,30.03,South,173,0.0,0.0,93,0.00,,,0.00,Wunderground v.1.13,2013-01-30 06:35:00,
2013-01-30 01:40:00,45.2,43.3,30.02,South,173,0.0,0.0,93,0.00,,,0.00,Wunderground v.1.13,2013-01-30 06:40:00,
2013-01-30 01:45:00,45.1,43.2,30.02,South,173,0.0,0.0,93,0.00,,,0.00,Wunderground v.1.13,2013-01-30 06:45:00,
2013-01-30 01:55:00,45.1,43.2,30.02,South,181,0.0,2.0,93,0.00,,,0.00,Wunderground v.1.13,2013-01-30 06:55:00,
2013-01-30 02:00:00,44.9,43.3,30.03,South,181,0.0,2.0,94,0.00,,,0.00,Wunderground v.1.13,2013-01-30 07:00:00,
2013-01-30 02:10:00,45.1,43.5,30.02,South,189,0.0,3.0,94,0.00,,,0.00,Wunderground v.1.13,2013-01-30 07:10:00,
2013-01-30 02:20:00,45.2,43.6,30.01,SSW,211,1.0,1.0,94,0.00,,,0.00,Wunderground v.1.13,2013-01-30 07:20:00,
2013-01-30 02:25:00,45.2,43.6,30.01,SSE,151,1.0,5.0,94,0.00,,,0.00,Wunderground v.1.13,2013-01-30 07:25:00,
2013-01-30 02:35:00,45.4,43.8,30.00,ESE,111,1.0,5.0,94,0.00,,,0.00,Wunderground v.1.13,2013-01-30 07:35:00,
2013-01-30 02:40:00,45.4,43.8,30.00,ESE,111,0.0,5.0,94,0.00,,,0.00,Wunderground v.1.13,2013-01-30 07:40:00,
2013-01-30 02:50:00,45.4,43.8,29.99,SSE,153,1.0,6.0,94,0.00,,,0.00,Wunderground v.1.13,2013-01-30 07:50:00,
2013-01-30 02:55:00,45.4,44.1,29.99,SSW,192,1.0,1.0,95,0.00,,,0.00,Wunderground v.1.13,2013-01-30 07:55:00,
2013-01-30 03:05:00,45.2,43.9,29.99,South,181,1.0,6.0,95,0.00,,,0.00,Wunderground v.1.13,2013-01-30 08:05:00,
2013-01-30 03:10:00,45.1,43.8,29.98,West,263,2.0,6.0,95,0.00,,,0.00,Wunderground v.1.13,2013-01-30 08:10:00,
2013-01-30 03:20:00,45.1,43.8,29.98,SSE,155,1.0,9.0,95,0.00,,,0.00,Wunderground v.1.13,2013-01-30 08:20:00,
2013-01-30 03:30:00,45.2,43.9,29.98,SSE,153,2.0,2.0,95,0.00,,,0.00,Wunderground v.1.13,2013-01-30 08:30:00,
2013-01-30 03:40:00,45.1,43.8,29.98,SE,132,1.0,1.0,95,0.00,,,0.00,Wunderground v.1.13,2013-01-30 08:40:00,
2013-01-30 03:45:00,45.1,43.8,29.98,SSE,161,0.0,6.0,95,0.00,,,0.00,Wunderground v.1.13,2013-01-30 08:45:00,
2013-01-30 03:55:00,45.1,43.8,29.96,SSE,167,0.0,5.0,95,0.00,,,0.00,Wunderground v.1.13,2013-01-30 08:55:00,
2013-01-30 04:00:00,45.1,43.8,29.95,SSE,167,0.0,5.0,95,0.00,,,0.00,Wunderground v.1.13,2013-01-30 09:00:00,
2013-01-30 04:10:00,44.9,43.6,29.95,South,178,1.0,1.0,95,0.00,,,0.00,Wunderground v.1.13,2013-01-30 09:10:00,
2013-01-30 04:20:00,44.9,43.6,29.95,South,184,1.0,1.0,95,0.00,,,0.00,Wunderground v.1.13,2013-01-30 09:20:00,
2013-01-30 04:30:00,45.1,43.8,29.95,SSE,152,1.0,1.0,95,0.00,,,0.00,Wunderground v.1.13,2013-01-30 09:30:00,
2013-01-30 04:35:00,44.8,43.5,29.95,SSE,147,1.0,1.0,95,0.00,,,0.00,Wunderground v.1.13,2013-01-30 09:35:00,
2013-01-30 04:45:00,44.6,43.3,29.94,SSE,158,2.0,6.0,95,0.00,,,0.00,Wunderground v.1.13,2013-01-30 09:45:00,
2013-01-30 04:55:00,44.6,43.3,29.94,SSE,165,1.0,9.0,95,0.00,,,0.00,Wunderground v.1.13,2013-01-30 09:55:00,
2013-01-30 05:05:00,44.5,43.2,29.93,SSE,164,1.0,6.0,95,0.00,,,0.00,Wunderground v.1.13,2013-01-30 10:05:00,
2013-01-30 05:15:00,44.1,42.8,29.94,SSE,162,1.0,6.0,95,0.00,,,0.00,Wunderground v.1.13,2013-01-30 10:15:00,
2013-01-30 05:20:00,44.1,42.8,29.94,SSE,148,1.0,4.0,95,0.00,,,0.00,Wunderground v.1.13,2013-01-30 10:20:00,
2013-01-30 05:30:00,44.6,43.3,29.94,South,170,1.0,4.0,95,0.00,,,0.00,Wunderground v.1.13,2013-01-30 10:30:00,
2013-01-30 05:35:00,44.5,43.2,29.94,South,170,1.0,1.0,95,0.00,,,0.00,Wunderground v.1.13,2013-01-30 10:35:00,
2013-01-30 05:45:00,44.6,43.3,29.94,South,170,1.0,1.0,95,0.00,,,0.00,Wunderground v.1.13,2013-01-30 10:45:00,
2013-01-30 05:55:00,44.5,43.2,29.93,SE,143,1.0,1.0,95,0.00,,,0.00,Wunderground v.1.13,2013-01-30 10:55:00,
2013-01-30 06:00:00,44.2,42.9,29.93,SSE,148,1.0,1.0,95,0.00,,,0.00,Wunderground v.1.13,2013-01-30 11:00:00,
2013-01-30 06:10:00,44.1,42.8,29.93,SSE,165,0.0,6.0,95,0.00,,,0.00,Wunderground v.1.13,2013-01-30 11:10:00,
2013-01-30 06:15:00,44.1,42.8,29.93,SSE,165,0.0,6.0,95,0.00,,,0.00,Wunderground v.1.13,2013-01-30 11:15:00,
2013-01-30 06:25:00,43.9,42.8,29.93,SSE,165,0.0,3.0,96,0.00,,,0.00,Wunderground v.1.13,2013-01-30 11:25:00,
2013-01-30 06:35:00,43.9,42.8,29.92,South,177,0.0,4.0,96,0.00,,,0.00,Wunderground v.1.13,2013-01-30 11:35:00,
2013-01-30 06:45:00,43.9,42.8,29.92,South,177,0.0,4.0,96,0.00,,,0.00,Wunderground v.1.13,2013-01-30 11:45:00,
2013-01-30 06:50:00,43.9,42.8,29.91,South,177,0.0,3.0,96,0.00,,,0.00,Wunderground v.1.13,2013-01-30 11:50:00,
2013-01-30 06:55:00,44.1,43.0,29.91,SSE,149,1.0,1.0,96,0.00,,,0.00,Wunderground v.1.13,2013-01-30 11:55:00,
2013-01-30 07:05:00,44.6,43.5,29.91,South,184,1.0,7.0,96,0.00,,,0.00,Wunderground v.1.13,2013-01-30 12:05:00,
2013-01-30 07:15:00,45.5,44.4,29.91,SSW,207,1.0,7.0,96,0.00,,,0.00,Wunderground v.1.13,2013-01-30 12:15:00,
2013-01-30 07:20:00,46.0,44.9,29.91,SW,234,2.0,2.0,96,0.00,,,0.00,Wunderground v.1.13,2013-01-30 12:20:00,
2013-01-30 07:25:00,46.1,45.0,29.91,South,177,2.0,2.0,96,0.00,,,0.00,Wunderground v.1.13,2013-01-30 12:25:00,
2013-01-30 07:35:00,46.1,45.0,29.90,WSW,254,1.0,1.0,96,0.00,,,0.00,Wunderground v.1.13,2013-01-30 12:35:00,
2013-01-30 07:45:00,46.2,45.1,29.90,SSE,158,1.0,9.0,96,0.00,,,0.00,Wunderground v.1.13,2013-01-30 12:45:00,
2013-01-30 07:50:00,46.2,45.1,29.90,South,188,1.0,7.0,96,0.00,,,0.00,Wunderground v.1.13,2013-01-30 12:50:00,
2013-01-30 08:00:00,46.7,45.6,29.90,South,176,1.0,7.0,96,0.00,,,0.00,Wunderground v.1.13,2013-01-30 13:00:00,
2013-01-30 08:05:00,46.7,45.6,29.90,SSE,157,2.0,2.0,96,0.00,,,0.00,Wunderground v.1.13,2013-01-30 13:05:00,
2013-01-30 08:10:00,46.7,45.6,29.90,SSE,157,2.0,5.0,96,0.00,,,0.00,Wunderground v.1.13,2013-01-30 13:10:00,
2013-01-30 08:20:00,47.0,45.9,29.89,SSE,155,1.0,1.0,96,0.00,,,0.00,Wunderground v.1.13,2013-01-30 13:20:00,
2013-01-30 08:25:00,47.0,45.9,29.88,SSE,163,2.0,2.0,96,0.00,,,0.00,Wunderground v.1.13,2013-01-30 13:25:00,
2013-01-30 08:35:00,47.0,45.9,29.89,SSE,155,2.0,9.0,96,0.00,,,0.00,Wunderground v.1.13,2013-01-30 13:35:00,
2013-01-30 08:40:00,47.0,45.9,29.88,SE,137,2.0,2.0,96,0.00,,,0.00,Wunderground v.1.13,2013-01-30 13:40:00,
2013-01-30 08:45:00,47.0,45.9,29.88,South,187,1.0,9.0,96,0.00,,,0.00,Wunderground v.1.13,2013-01-30 13:45:00,
2013-01-30 08:55:00,47.1,46.0,29.88,SW,218,2.0,7.0,96,0.00,,,0.00,Wunderground v.1.13,2013-01-30 13:55:00,
2013-01-30 09:05:00,47.4,46.3,29.87,South,180,2.0,2.0,96,0.00,,,0.00,Wunderground v.1.13,2013-01-30 14:05:00,
2013-01-30 09:10:00,47.4,46.3,29.88,South,186,2.0,2.0,96,0.00,,,0.00,Wunderground v.1.13,2013-01-30 14:10:00,
2013-01-30 09:20:00,47.4,46.3,29.87,South,176,1.0,1.0,96,0.00,,,0.00,Wunderground v.1.13,2013-01-30 14:20:00,
2013-01-30 09:25:00,47.6,46.5,29.86,South,175,1.0,11.0,96,0.00,,,0.00,Wunderground v.1.13,2013-01-30 14:25:00,
2013-01-30 09:30:00,47.7,46.6,29.87,SSE,162,2.0,11.0,96,0.00,,,0.00,Wunderground v.1.13,2013-01-30 14:30:00,
2013-01-30 09:40:00,48.2,47.1,29.86,SSW,208,3.0,3.0,96,0.00,,,0.00,Wunderground v.1.13,2013-01-30 14:40:00,
2013-01-30 09:45:00,48.2,47.1,29.86,South,179,4.0,4.0,96,0.00,,,0.00,Wunderground v.1.13,2013-01-30 14:45:00,
2013-01-30 09:55:00,48.3,47.2,29.86,SW,230,4.0,4.0,96,0.00,,,0.00,Wunderground v.1.13,2013-01-30 14:55:00,
2013-01-30 10:00:00,48.5,47.4,29.85,SE,144,4.0,4.0,96,0.00,,,0.00,Wunderground v.1.13,2013-01-30 15:00:00,
2013-01-30 10:10:00,48.5,47.4,29.85,SSE,163,5.0,5.0,96,0.00,,,0.00,Wunderground v.1.13,2013-01-30 15:10:00,
2013-01-30 10:15:00,48.5,47.4,29.85,South,182,4.0,4.0,96,0.00,,,0.00,Wunderground v.1.13,2013-01-30 15:15:00,
2013-01-30 10:25:00,48.6,47.2,29.84,SE,146,3.0,13.0,95,0.00,,,0.00,Wunderground v.1.13,2013-01-30 15:25:00,
2013-01-30 10:30:00,48.6,47.2,29.84,South,180,3.0,13.0,95,0.00,,,0.00,Wunderground v.1.13,2013-01-30 15:30:00,
2013-01-30 10:40:00,49.1,47.7,29.83,SW,223,3.0,3.0,95,0.00,,,0.00,Wunderground v.1.13,2013-01-30 15:40:00,
2013-01-30 10:50:00,48.9,47.5,29.83,SSE,153,4.0,12.0,95,0.00,,,0.00,Wunderground v.1.13,2013-01-30 15:50:00,
2013-01-30 10:55:00,49.1,47.7,29.82,SSW,213,4.0,4.0,95,0.00,,,0.00,Wunderground v.1.13,2013-01-30 15:55:00,
2013-01-30 11:05:00,49.8,48.4,29.81,SW,225,2.0,2.0,95,0.00,,,0.00,Wunderground v.1.13,2013-01-30 16:05:00,
2013-01-30 11:15:00,49.9,48.2,29.82,South,184,3.0,14.0,94,0.00,,,0.00,Wunderground v.1.13,2013-01-30 16:15:00,
2013-01-30 11:20:00,49.9,48.2,29.81,SW,227,3.0,3.0,94,0.00,,,0.00,Wunderground v.1.13,2013-01-30 16:20:00,
2013-01-30 11:30:00,50.4,48.7,29.80,SSE,151,4.0,14.0,94,0.00,,,0.00,Wunderground v.1.13,2013-01-30 16:30:00,
2013-01-30 11:35:00,50.7,48.7,29.80,SSE,157,4.0,4.0,93,0.00,,,0.00,Wunderground v.1.13,2013-01-30 16:35:00,
2013-01-30 11:45:00,50.4,48.2,29.81,SSE,149,3.0,15.0,92,0.00,,,0.00,Wunderground v.1.13,2013-01-30 16:45:00,
2013-01-30 11:55:00,50.8,48.6,29.79,South,170,2.0,10.0,92,0.00,,,0.00,Wunderground v.1.13,2013-01-30 16:55:00,
2013-01-30 12:10:00,51.9,48.8,29.77,South,173,3.0,3.0,89,0.00,,,0.00,Wunderground v.1.13,2013-01-30 17:10:00,
2013-01-30 12:15:00,52.2,48.8,29.77,South,174,3.0,3.0,88,0.00,,,0.00,Wunderground v.1.13,2013-01-30 17:15:00,
2013-01-30 12:20:00,52.5,48.7,29.77,SSE,153,2.0,7.0,87,0.00,,,0.00,Wunderground v.1.13,2013-01-30 17:20:00,
2013-01-30 12:25:00,53.2,49.4,29.77,SW,228,2.0,7.0,87,0.00,,,0.00,Wunderground v.1.13,2013-01-30 17:25:00,
2013-01-30 12:35:00,54.4,50.0,29.76,SSE,159,2.0,10.0,85,0.00,,,0.00,Wunderground v.1.13,2013-01-30 17:35:00,
2013-01-30 12:45:00,55.4,50.6,29.75,SE,130,2.0,2.0,84,0.00,,,0.00,Wunderground v.1.13,2013-01-30 17:45:00,
2013-01-30 12:55:00,55.4,50.3,29.74,South,181,3.0,3.0,83,0.00,,,0.00,Wunderground v.1.13,2013-01-30 17:55:00,
2013-01-30 13:00:00,55.3,49.9,29.74,SE,132,2.0,2.0,82,0.00,,,0.00,Wunderground v.1.13,2013-01-30 18:00:00,
2013-01-30 13:10:00,54.7,49.0,29.72,ESE,116,3.0,11.0,81,0.00,,,0.00,Wunderground v.1.13,2013-01-30 18:10:00,
2013-01-30 13:15:00,54.1,48.7,29.72,South,184,4.0,11.0,82,0.00,,,0.00,Wunderground v.1.13,2013-01-30 18:15:00,
2013-01-30 13:25:00,53.9,49.2,29.72,South,188,5.0,5.0,84,0.00,,,0.00,Wunderground v.1.13,2013-01-30 18:25:00,
2013-01-30 13:35:00,55.0,49.9,29.71,SSE,165,3.0,11.0,83,0.00,,,0.00,Wunderground v.1.13,2013-01-30 18:35:00,
2013-01-30 13:45:00,55.3,49.9,29.71,SSW,195,4.0,11.0,82,0.00,,,0.00,Wunderground v.1.13,2013-01-30 18:45:00,
2013-01-30 13:50:00,55.6,49.9,29.71,South,179,4.0,12.0,81,0.00,,,0.00,Wunderground v.1.13,2013-01-30 18:50:00,
2013-01-30 14:00:00,55.1,49.4,29.70,South,171,4.0,12.0,81,0.00,,,0.00,Wunderground v.1.13,2013-01-30 19:00:00,
2013-01-30 14:05:00,54.7,49.3,29.69,SE,139,4.0,4.0,82,0.00,,,0.00,Wunderground v.1.13,2013-01-30 19:05:00,
2013-01-30 14:15:00,54.4,49.3,29.68,South,183,4.0,4.0,83,0.00,,,0.00,Wunderground v.1.13,2013-01-30 19:15:00,
2013-01-30 14:25:00,54.4,49.3,29.68,SSE,153,4.0,15.0,83,0.00,,,0.00,Wunderground v.1.13,2013-01-30 19:25:00,
2013-01-30 14:30:00,54.1,49.1,29.68,SE,146,3.0,15.0,83,0.00,,,0.00,Wunderground v.1.13,2013-01-30 19:30:00,
2013-01-30 14:40:00,53.9,49.2,29.68,South,177,4.0,14.0,84,0.00,,,0.00,Wunderground v.1.13,2013-01-30 19:40:00,
2013-01-30 14:50:00,53.1,48.4,29.68,SSE,160,4.0,16.0,84,0.00,,,0.00,Wunderground v.1.13,2013-01-30 19:50:00,
2013-01-30 14:55:00,52.5,48.1,29.68,ESE,121,4.0,4.0,85,0.00,,,0.00,Wunderground v.1.13,2013-01-30 19:55:00,
2013-01-30 15:05:00,52.5,48.7,29.68,SSE,157,4.0,12.0,87,0.00,,,0.00,Wunderground v.1.13,2013-01-30 20:05:00,
2013-01-30 15:15:00,52.2,48.1,29.67,South,182,3.0,12.0,86,0.00,,,0.00,Wunderground v.1.13,2013-01-30 20:15:00,
2013-01-30 15:20:00,51.7,48.0,29.67,SSE,161,3.0,12.0,87,0.00,,,0.00,Wunderground v.1.13,2013-01-30 20:20:00,
2013-01-30 15:30:00,51.1,47.7,29.67,South,183,3.0,3.0,88,0.00,,,0.00,Wunderground v.1.13,2013-01-30 20:30:00,
2013-01-30 15:35:00,51.1,48.0,29.67,SW,215,2.0,11.0,89,0.00,,,0.00,Wunderground v.1.13,2013-01-30 20:35:00,
2013-01-30 15:45:00,51.3,48.2,29.67,SSW,194,2.0,2.0,89,0.00,,,0.00,Wunderground v.1.13,2013-01-30 20:45:00,
2013-01-30 15:55:00,52.3,49.5,29.67,SSW,199,1.0,13.0,90,0.00,,,0.00,Wunderground v.1.13,2013-01-30 20:55:00,
2013-01-30 16:00:00,53.3,50.1,29.67,WSW,246,2.0,2.0,89,0.00,,,0.00,Wunderground v.1.13,2013-01-30 21:00:00,
2013-01-30 16:10:00,55.6,52.4,29.66,South,177,2.0,2.0,89,0.00,,,0.00,Wunderground v.1.13,2013-01-30 21:10:00,
2013-01-30 16:15:00,56.9,53.1,29.65,SE,128,3.0,3.0,87,0.00,,,0.00,Wunderground v.1.13,2013-01-30 21:15:00,
2013-01-30 16:25:00,57.5,52.7,29.64,SSW,209,5.0,5.0,84,0.00,,,0.00,Wunderground v.1.13,2013-01-30 21:25:00,
2013-01-30 16:30:00,57.0,51.9,29.64,South,173,4.0,8.0,83,0.00,,,0.00,Wunderground v.1.13,2013-01-30 21:30:00,
2013-01-30 16:40:00,56.5,51.7,29.63,WSW,252,3.0,13.0,84,0.00,,,0.00,Wunderground v.1.13,2013-01-30 21:40:00,
2013-01-30 16:45:00,56.6,52.1,29.63,South,178,3.0,13.0,85,0.00,,,0.00,Wunderground v.1.13,2013-01-30 21:45:00,
2013-01-30 16:55:00,56.0,51.2,29.62,South,175,3.0,15.0,84,0.00,,,0.00,Wunderground v.1.13,2013-01-30 21:55:00,
2013-01-30 17:00:00,55.3,50.5,29.62,SSW,196,3.0,15.0,84,0.00,,,0.00,Wunderground v.1.13,2013-01-30 22:00:00,
2013-01-30 17:10:00,53.9,49.5,29.63,SSW,206,3.0,3.0,85,0.00,,,0.00,Wunderground v.1.13,2013-01-30 22:10:00,
2013-01-30 17:20:00,52.9,48.8,29.63,SSE,152,2.0,2.0,86,0.00,,,0.00,Wunderground v.1.13,2013-01-30 22:20:00,
2013-01-30 17:30:00,52.3,48.5,29.63,SE,136,1.0,11.0,87,0.00,,,0.00,Wunderground v.1.13,2013-01-30 22:30:00,
2013-01-30 17:35:00,52.2,48.8,29.63,SE,131,1.0,1.0,88,0.00,,,0.00,Wunderground v.1.13,2013-01-30 22:35:00,
2013-01-30 17:45:00,51.3,47.9,29.63,SSE,167,2.0,2.0,88,0.00,,,0.00,Wunderground v.1.13,2013-01-30 22:45:00,
2013-01-30 17:55:00,51.4,48.3,29.61,SE,136,2.0,2.0,89,0.00,,,0.00,Wunderground v.1.13,2013-01-30 22:55:00,
2013-01-30 18:00:00,51.4,48.3,29.61,SE,135,1.0,1.0,89,0.00,,,0.00,Wunderground v.1.13,2013-01-30 23:00:00,
2013-01-30 18:10:00,53.1,50.5,29.61,SE,144,2.0,6.0,91,0.00,,,0.00,Wunderground v.1.13,2013-01-30 23:10:00,
2013-01-30 18:20:00,55.7,53.1,29.61,SSW,197,3.0,8.0,91,0.00,,,0.00,Wunderground v.1.13,2013-01-30 23:20:00,
2013-01-30 18:30:00,57.3,54.1,29.60,South,189,3.0,9.0,89,0.00,,,0.00,Wunderground v.1.13,2013-01-30 23:30:00,
2013-01-30 18:35:00,58.0,54.5,29.61,SSW,200,4.0,17.0,88,0.00,,,0.00,Wunderground v.1.13,2013-01-30 23:35:00,
2013-01-30 18:40:00,58.3,54.1,29.60,SSW,203,5.0,17.0,86,0.00,,,0.00,Wunderground v.1.13,2013-01-30 23:40:00,
2013-01-30 18:50:00,58.9,54.4,29.61,South,187,4.0,18.0,85,0.00,,,0.00,Wunderground v.1.13,2013-01-30 23:50:00,
2013-01-30 18:55:00,58.9,54.4,29.61,SW,227,4.0,4.0,85,0.00,,,0.00,Wunderground v.1.13,2013-01-30 23:55:00,
2013-01-30 19:05:00,59.8,55.3,29.61,SSW,205,5.0,15.0,85,0.00,,,0.00,Wunderground v.1.13,2013-01-31 00:05:00,
2013-01-30 19:15:00,60.2,55.0,29.60,SW,230,6.0,6.0,83,0.00,,,0.00,Wunderground v.1.13,2013-01-31 00:15:00,
2013-01-30 19:20:00,60.4,55.2,29.60,SSW,208,5.0,5.0,83,0.00,,,0.00,Wunderground v.1.13,2013-01-31 00:20:00,
2013-01-30 19:25:00,60.5,55.3,29.60,SE,136,5.0,15.0,83,0.00,,,0.00,Wunderground v.1.13,2013-01-31 00:25:00,
2013-01-30 19:35:00,60.5,55.3,29.60,West,260,5.0,14.0,83,0.00,,,0.00,Wunderground v.1.13,2013-01-31 00:35:00,
2013-01-30 19:40:00,60.5,55.3,29.60,WSW,248,5.0,5.0,83,0.00,,,0.00,Wunderground v.1.13,2013-01-31 00:40:00,
2013-01-30 19:50:00,60.5,55.3,29.60,SW,224,6.0,6.0,83,0.00,,,0.00,Wunderground v.1.13,2013-01-31 00:50:00,
2013-01-30 20:00:00,60.4,55.5,29.59,WNW,301,6.0,6.0,84,0.00,,,0.00,Wunderground v.1.13,2013-01-31 01:00:00,
2013-01-30 20:05:00,60.4,55.2,29.59,South,190,6.0,21.0,83,0.00,,,0.00,Wunderground v.1.13,2013-01-31 01:05:00,
2013-01-30 20:15:00,60.2,55.3,29.58,SW,228,7.0,21.0,84,0.00,,,0.00,Wunderground v.1.13,2013-01-31 01:15:00,
2013-01-30 20:25:00,59.8,55.0,29.57,SW,234,4.0,4.0,84,0.00,,,0.00,Wunderground v.1.13,2013-01-31 01:25:00,
2013-01-30 20:35:00,57.8,53.0,29.56,SSE,148,3.0,3.0,84,0.00,,,0.00,Wunderground v.1.13,2013-01-31 01:35:00,
2013-01-30 20:40:00,57.2,52.7,29.56,SE,128,3.0,3.0,85,0.00,,,0.00,Wunderground v.1.13,2013-01-31 01:40:00,
2013-01-30 20:50:00,56.3,52.2,29.55,SSW,200,3.0,3.0,86,0.00,,,0.00,Wunderground v.1.13,2013-01-31 01:50:00,
2013-01-30 20:55:00,56.0,52.2,29.55,SSE,157,3.0,13.0,87,0.00,,,0.00,Wunderground v.1.13,2013-01-31 01:55:00,
2013-01-30 21:05:00,55.7,52.2,29.54,SSE,167,4.0,4.0,88,0.00,,,0.00,Wunderground v.1.13,2013-01-31 02:05:00,
2013-01-30 21:15:00,56.5,53.3,29.53,SSW,205,4.0,13.0,89,0.00,,,0.00,Wunderground v.1.13,2013-01-31 02:15:00,
2013-01-30 21:20:00,56.7,53.5,29.53,SW,236,4.0,13.0,89,0.00,,,0.00,Wunderground v.1.13,2013-01-31 02:20:00,
2013-01-30 21:25:00,57.3,54.1,29.52,South,173,6.0,13.0,89,0.00,,,0.00,Wunderground v.1.13,2013-01-31 02:25:00,
2013-01-30 21:35:00,57.5,54.0,29.52,SW,229,6.0,6.0,88,0.00,,,0.00,Wunderground v.1.13,2013-01-31 02:35:00,
2013-01-30 21:45:00,57.0,53.5,29.52,South,184,5.0,18.0,88,0.00,,,0.00,Wunderground v.1.13,2013-01-31 02:45:00,
2013-01-30 21:50:00,56.9,53.7,29.52,SSW,202,5.0,20.0,89,0.00,,,0.00,Wunderground v.1.13,2013-01-31 02:50:00,
2013-01-30 21:55:00,56.7,53.5,29.51,SSW,192,5.0,5.0,89,0.00,,,0.00,Wunderground v.1.13,2013-01-31 02:55:00,
2013-01-30 22:05:00,56.3,53.1,29.50,SW,215,5.0,5.0,89,0.00,,,0.00,Wunderground v.1.13,2013-01-31 03:05:00,
2013-01-30 22:15:00,55.6,52.7,29.48,SSW,198,5.0,5.0,90,0.00,,,0.00,Wunderground v.1.13,2013-01-31 03:15:00,
2013-01-30 22:20:00,55.7,52.8,29.48,SSW,196,5.0,5.0,90,0.00,,,0.00,Wunderground v.1.13,2013-01-31 03:20:00,
2013-01-30 22:25:00,56.0,53.1,29.48,SSE,161,5.0,17.0,90,0.00,,,0.00,Wunderground v.1.13,2013-01-31 03:25:00,
2013-01-30 22:35:00,56.2,53.3,29.48,SSE,167,7.0,25.0,90,0.00,,,0.00,Wunderground v.1.13,2013-01-31 03:35:00,
2013-01-30 22:40:00,56.3,53.7,29.47,SE,141,7.0,25.0,91,0.00,,,0.00,Wunderground v.1.13,2013-01-31 03:40:00,
2013-01-30 22:50:00,56.3,53.7,29.47,South,176,6.0,21.0,91,0.00,,,0.00,Wunderground v.1.13,2013-01-31 03:50:00,
2013-01-30 22:55:00,56.5,53.9,29.47,SSE,157,6.0,6.0,91,0.00,,,0.00,Wunderground v.1.13,2013-01-31 03:55:00,
2013-01-30 23:05:00,56.9,54.3,29.46,SSW,195,5.0,16.0,91,0.00,,,0.00,Wunderground v.1.13,2013-01-31 04:05:00,
2013-01-30 23:10:00,56.9,54.0,29.45,SSW,199,5.0,5.0,90,0.00,,,0.00,Wunderground v.1.13,2013-01-31 04:10:00,
2013-01-30 23:20:00,57.2,54.6,29.45,SSW,207,5.0,25.0,91,0.00,,,0.00,Wunderground v.1.13,2013-01-31 04:20:00,
2013-01-30 23:25:00,58.0,55.4,29.44,SE,128,6.0,6.0,91,0.00,,,0.00,Wunderground v.1.13,2013-01-31 04:25:00,
2013-01-30 23:35:00,58.7,56.1,29.43,SSE,163,6.0,6.0,91,0.00,,,0.01,Wunderground v.1.13,2013-01-31 04:35:00,
2013-01-30 23:45:00,57.8,55.2,29.42,SE,142,5.0,20.0,91,0.06,,,0.02,Wunderground v.1.13,2013-01-31 04:45:00,
2013-01-30 23:50:00,57.2,54.6,29.42,SSW,211,6.0,16.0,91,0.04,,,0.02,Wunderground v.1.13,2013-01-31 04:50:00,
2013-01-30 23:55:00,57.2,54.6,29.41,SSW,198,7.0,16.0,91,0.00,,,0.02,Wunderground v.1.13,2013-01-31 04:55:00,